JCSAT-3A

Last updated on Tue Sep 16 2025 00:02:46 GMT+0000 (Coordinated Universal Time)

1 29272U 06033A 25258.56059880 .00000000 00000+0 00000+0 0 9995 2 29272 0.0199 150.4730 0002611 44.1962 129.9121 1.00268786 44987
UTC large
Height (km)
Speed (km/s)
/
Latitude / Longitude
Inclination (degrees)
Orbital Period (minutes)
Azimuth
Elevation
Range (km)
Doppler Factor

Next 0 passes for location: London (51.5072 / 0.1276)

Sorry there are no passes over London.